sat.trackr.live / text

‹ back to catalog

KAZEOSAT 2

NORAD 40010 · 2014-033A

PAYLOAD ACTIVE UNKNOWN

§ Identity

Operator
Country
KAZ
Launch date
2014-06-19
Launch site
DLS
Launch vehicle
Mass (kg)
RCS (m²)
0.40

Purposes: earth_obs

External: N2YO · Heavens-Above · Gunter

§ Orbital elements

Epoch: 2026-09-20T03:18:15.216768Z

Period
96.93 min
Inclination
97.5364°
Eccentricity
0.0009161
Mean motion
14.85561613 rev/d
Perigee alt
605.4 km
Apogee alt
618.2 km
Semi-major
6,990.0 km
B*
6.3093e-7
RAAN
97.7257°
Arg perigee
15.7370°
Mean anomaly
344.4129°
Rev number
66,305

§ Raw data

KAZEOSAT 21 40010U 14033A   26263.13767612 -.00000045  00000+0  63093-6 0  99942 40010  97.5364  97.7257 0009161  15.7370 344.4129 14.85561613663055

JSON: /api/v1/satellites/40010 · /tle

For live sub-satellite position, see the globe view (requires WebGL).

§ Visibility from observer

Set your observer location to see the next 7 days of passes ≥ 10°. The values pass through the URL so the page stays shareable.

No JS? Fill the form by hand. The geolocation button needs JavaScript.